sat.trackr.live / text

‹ back to catalog

STARLINK-3077

NORAD 49133 · 2021-082D

PAYLOAD ACTIVE UNKNOWN

§ Identity

Operator
Country
US
Launch date
2021-09-14
Launch site
AFWTR
Launch vehicle
Mass (kg)
RCS (m²)

Purposes: comms

External: N2YO · Heavens-Above · Gunter

§ Orbital elements

Epoch: 2026-09-19T23:51:06.088608Z

Period
96.11 min
Inclination
69.9993°
Eccentricity
0.0002879
Mean motion
14.98332878 rev/d
Perigee alt
570.0 km
Apogee alt
574.0 km
Semi-major
6,950.2 km
B*
3.0119e-5
RAAN
164.5466°
Arg perigee
269.1679°
Mean anomaly
90.9150°
Rev number
27,508

§ Raw data

STARLINK-30771 49133U 21082D   26262.99382047  .00000266  00000+0  30119-4 0  99942 49133  69.9993 164.5466 0002879 269.1679  90.9150 14.98332878275084

JSON: /api/v1/satellites/49133 · /tle

For live sub-satellite position, see the globe view (requires WebGL).

§ Visibility from observer

Set your observer location to see the next 7 days of passes ≥ 10°. The values pass through the URL so the page stays shareable.

No JS? Fill the form by hand. The geolocation button needs JavaScript.